Date,TemperatureHighF,TemperatureAvgF,TemperatureLowF,DewpointHighF,DewpointAvgF,DewpointLowF,HumidityHigh,HumidityAvg,HumidityLow,PressureMaxIn,PressureMinIn,WindSpeedMaxMPH,WindSpeedAvgMPH,GustSpeedMaxMPH,PrecipitationSumIn
2013-2-1,38,28,20,23,13,8,73,56,35,30.56,30.33,7,1,10,0.00
2013-2-2,51,37,24,35,28,16,93,70,50,30.32,30.14,5,1,9,0.00
2013-2-3,55,43,31,36,31,25,96,64,36,30.18,30.10,8,1,15,0.00
2013-2-4,58,46,34,45,35,28,93,68,39,30.11,29.91,5,2,12,0.04
2013-2-5,66,49,36,51,43,35,100,82,49,30.05,29.92,3,0,8,0.00
2013-2-6,61,49,35,43,40,35,99,75,49,30.22,30.05,5,1,9,0.00
2013-2-7,70,56,40,55,48,36,96,74,54,30.05,29.87,4,1,8,0.12
2013-2-8,56,43,31,56,39,30,98,86,72,30.32,29.89,10,3,14,0.20
2013-2-9,52,41,27,40,33,26,97,77,51,30.34,30.05,5,1,8,0.01
2013-2-10,60,55,50,58,49,38,96,80,56,30.04,29.74,10,4,21,0.64
2013-2-11,59,50,44,52,35,29,83,58,33,30.21,29.94,3,0,9,0.00
2013-2-12,52,45,34,42,38,33,97,77,55,30.16,29.80,5,1,8,0.02
2013-2-13,44,41,37,42,38,36,96,91,82,30.02,29.78,4,1,11,0.06
2013-2-14,64,48,35,41,37,33,97,70,32,30.07,29.99,9,2,12,0.01
2013-2-15,55,45,34,39,32,25,90,65,36,30.20,30.05,8,2,12,0.00
2013-2-16,40,33,26,24,21,15,82,63,39,30.28,30.20,7,1,13,0.00
2013-2-17,56,43,29,31,25,20,69,51,33,30.27,30.07,8,2,12,0.00
2013-2-18,60,51,44,52,43,30,95,74,53,30.09,29.75,13,4,25,0.96
2013-2-19,49,41,32,43,29,21,85,64,39,30.28,29.95,9,2,15,0.00
2013-2-20,35,32,28,26,20,17,83,63,50,30.38,30.21,4,1,9,0.00
2013-2-21,44,37,32,43,32,23,98,83,59,30.20,29.77,4,1,11,0.97
2013-2-22,50,42,36,42,38,32,98,89,69,30.10,29.88,4,1,8,0.00
2013-2-23,53,38,28,34,30,27,96,76,47,30.08,29.96,5,1,11,0.00
2013-2-24,59,42,26,34,30,25,99,67,37,30.13,29.92,5,1,8,0.00
2013-2-25,61,51,38,53,39,28,97,64,34,29.93,29.32,6,2,15,0.50
2013-2-26,54,45,40,53,40,34,96,83,74,29.81,29.32,10,4,17,0.04
2013-2-27,46,41,38,39,34,29,84,76,68,29.98,29.82,11,2,11,0.00
2013-2-28,42,38,33,32,30,28,82,72,63,30.11,29.98,6,1,12,0.00